This demonstration page uses our WeatherBlox Daily Observations layout. Learn more.

Left ArrowRight Arrow

Hourly Observations for June 2, 2016

Temp ( °F °C ) Dew Point ( °F °C ) Humidity (%) Winds ( mph kmh ) Pressure ( in mb ) Visibility ( mi km ) Precip ( " mm )
12:51 am 00:51 Clear 69 20.6 36 2.2 30 30 ESE 7 11 29.83 1010 10 16 0.00 0.00
1:51 am 01:51 Clear 68 20 37 2.8 32 32 E 9 15 29.84 1011 10 16 0.00 0.00
2:51 am 02:51 Clear 72 22.2 38 3.3 29 29 ESE 8 13 29.85 1011 10 16 0.00 0.00
3:51 am 03:51 Clear 68 20 38 3.3 33 33 SE 9 15 29.86 1011 10 16 0.00 0.00
4:51 am 04:51 Clear 67 19.4 39 3.9 36 36 ESE 12 19 29.88 1012 10 16 0.00 0.00
5:51 am 05:51 Sunny 67 19.4 39 3.9 36 36 S 10 17 29.90 1013 10 16 0.00 0.00
6:51 am 06:51 Sunny 71 21.7 41 5 34 34 SSE 12 19 29.91 1013 10 16 0.00 0.00
7:51 am 07:51 Sunny 75 23.9 41 5 29 29 ESE 9 15 29.92 1013 10 16 0.00 0.00
8:51 am 08:51 Sunny 79 26.1 42 5.6 27 27 SE 6 9 29.93 1014 10 16 0.00 0.00
9:51 am 09:51 Sunny 84 28.9 41 5 22 22 VRB 6 9 29.92 1013 10 16 0.00 0.00
10:51 am 10:51 Sunny 87 30.6 40 4.4 19 19 Calm 29.91 1013 10 16 0.00 0.00
11:51 am 11:51 Sunny 90 32.2 38 3.3 16 16 VRB 7 11 29.87 1011 10 16 0.00 0.00
12:51 pm 12:51 Sunny 93 33.9 35 1.7 13 13 WNW 10 17 29.84 1010 10 16 0.00 0.00
1:51 pm 13:51 Sunny 95 35 33 0.6 11 11 NW 6 9 29.80 1009 10 16 0.00 0.00
2:51 pm 14:51 Sunny 98 36.7 29 -1.7 9 9 NW 14 22 29.76 1008 10 16 0.00 0.00
3:51 pm 15:51 Sunny 99 37.2 25 -3.9 7 7 W 12 19 29.73 1007 10 16 0.00 0.00
4:51 pm 16:51 Sunny 99 37.2 25 -3.9 7 7 W 9 15 29.72 1006 10 16 0.00 0.00
5:51 pm 17:51 Sunny 99 37.2 24 -4.4 7 7 NW 12 19 29.70 1006 10 16 0.00 0.00
6:51 pm 18:51 Sunny 95 35 26 -3.3 8 8 WNW 16 26 29.72 1006 10 16 0.00 0.00
7:51 pm 19:51 Clear 91 32.8 27 -2.8 10 10 WNW 13 20 29.75 1008 10 16 0.00 0.00
8:51 pm 20:51 Clear 86 30 24 -4.4 10 10 NW 12 19 29.78 1009 10 16 0.00 0.00
9:51 pm 21:51 Clear 85 29.4 23 -5 10 10 NW 14 22 29.80 1009 10 16 0.00 0.00
10:51 pm 22:51 Clear 85 29.4 22 -5.6 10 10 NW 16 26 29.79 1009 10 16 0.00 0.00
11:51 pm 23:51 Clear 84 28.9 20 -6.7 9 9 NW 14 22 29.79 1009 10 16 0.00 0.00

Powered by AerisWeather